Change the Weather History Date:

Saturday, October 26, 2013

  Actual Average Record
Temperature  
Mean Temperature 77 °F -  
Max Temperature 89 °F - - ()
Min Temperature 65 °F - - ()
Cooling Degree Days 12    
Growing Degree Days 27 (Base 50)    
Moisture  
Dew Point 59 °F    
Average Humidity 57    
Maximum Humidity 83    
Minimum Humidity 27    
Precipitation  
Precipitation 0.00 in - - ()
Sea Level Pressure  
Sea Level Pressure 30.02 in    
Wind  
Wind Speed 3 mph ()    
Max Wind Speed 15 mph    
Max Gust Speed -    
Visibility 9.4 miles    
Events      
T = Trace of Precipitation, MM = Missing Value Source: Averaged Metar Reports

Daily Weather History Graph

Daily Weather History Graph

Search for Another Location

Airport or City:

Trip Planner

Search our weather history database for the weather conditions in past years. The results will help you decide how hot, cold, wet, or windy it might be!

Date:

Astronomy

Oct. 26, 2013 Rise Set
Actual Time 6:37 AM EAT 6:53 PM EAT
Civil Twilight 6:16 AM EAT 7:14 PM EAT
Nautical Twilight 5:51 AM EAT 7:39 PM EAT
Astronomical Twilight 5:26 AM EAT 8:04 PM EAT
Moon 12:16 AM EAT (10/26) 12:26 PM EAT (10/26)
Length of Visible Light 12h 58m
Length of Day
12h 15m
Waning Gibbous, 56% of the Moon is Illuminated
Oct 26
Waning Gibbous
Oct 27
Last Quarter
Nov 3
New
Nov 10
First Quarter
Nov 17
Full

Hourly Weather History & Observations

Time (EAT) Temp. Heat Index Dew Point Humidity Pressure Visibility Wind Dir Wind Speed Gust Speed Precip Events Conditions
12:00 AM 71 °F - 61 °F 62%  in 19 mi Calm Calm - -   Scattered Clouds
12:00 AM 71.6 °F - 60.8 °F 69% 30.04 in 6.2 mi Calm Calm - N/A   Mostly Cloudy
1:00 AM 69.8 °F - 60.8 °F 73% 30.01 in 6.2 mi Calm Calm - N/A   Mostly Cloudy
3:00 AM 66 °F - 59 °F 70%  in 19 mi NNE 5.8 mph - -   Scattered Clouds
3:00 AM 66.2 °F - 59.0 °F 78% 29.98 in 6.2 mi NNE 5.8 mph - N/A   Scattered Clouds
4:00 AM 66.2 °F - 59.0 °F 78% 29.98 in 6.2 mi Calm Calm - N/A   Scattered Clouds
5:00 AM 66.2 °F - 59.0 °F 78% 30.01 in 6.2 mi Calm Calm - N/A   Scattered Clouds
6:00 AM 65 °F - 60 °F 77%  in 19 mi Calm Calm - -   Scattered Clouds
6:00 AM 66.2 °F - 59.0 °F 78% 30.04 in 6.2 mi Calm Calm - N/A   Scattered Clouds
7:00 AM 64.4 °F - 59.0 °F 83% 30.06 in 6.2 mi Calm Calm - N/A   Scattered Clouds
8:00 AM 69.8 °F - 60.8 °F 73% 30.09 in 6.2 mi Calm Calm - N/A   Scattered Clouds
9:00 AM 77 °F - 59 °F 43%  in 19 mi Calm Calm - -   Scattered Clouds
9:00 AM 77.0 °F - 59.0 °F 54% 30.09 in 6.2 mi Calm Calm - N/A   Scattered Clouds
10:00 AM 84.2 °F 82.8 °F 53.6 °F 35% 30.09 in - East 11.5 mph - N/A   Clear
11:00 AM 87.8 °F - 50.0 °F 27% 30.09 in - East 13.8 mph - N/A   Clear
12:00 PM 86.0 °F 84.5 °F 55.4 °F 35% 30.06 in 6.2 mi SSW 11.5 mph - N/A   Scattered Clouds
1:00 PM 86.0 °F 86.1 °F 60.8 °F 43% 30.04 in 6.2 mi South 15.0 mph - N/A   Scattered Clouds
2:00 PM 86.0 °F 86.6 °F 62.6 °F 45% 30.01 in 6.2 mi South 13.8 mph - N/A   Partly Cloudy
3:00 PM 86.0 °F 85.4 °F 59.0 °F 40% 29.98 in 6.2 mi NW 6.9 mph - N/A   Partly Cloudy
4:00 PM 87.8 °F 87.6 °F 60.8 °F 40% 29.98 in 6.2 mi NNW 5.8 mph - N/A   Partly Cloudy
5:00 PM 87.8 °F 86.1 °F 55.4 °F 33% 29.95 in 6.2 mi NNW 8.1 mph - N/A   Partly Cloudy
7:00 PM 84.2 °F 83.5 °F 57.2 °F 40% 29.95 in - Calm Calm - N/A   Clear
8:00 PM 80.6 °F 81.5 °F 60.8 °F 51% 29.95 in - Calm Calm - N/A   Clear
9:00 PM 77 °F - 62 °F 51%  in 19 mi Calm Calm - -   Clear
9:00 PM 77.0 °F - 62.6 °F 61% 29.98 in - Calm Calm - N/A   Clear
10:00 PM 73.4 °F - 59.0 °F 61% 29.98 in - Calm Calm - N/A   Clear
11:00 PM 73.4 °F - 59.0 °F 61% 30.01 in - Calm Calm - N/A   Clear